Tracking 22879 objects as of 23-Apr-2021
HD Live streaming from Space Station
objects crossing your sky now

METEOR 2-17 DEB

Track METEOR 2-17 DEB now!
10-day predictions


NORAD ID: 28992
Int'l Code: 1988-005G
Perigee: 924.9 km
Apogee: 934.5 km
Inclination: 82.5 °
Period: 103.5 minutes
Semi major axis: 7300 km
RCS: 0.0128 m2 (small)
Launch date: January 30, 1988
Source: Commonwealth of Independent States (former USSR) (CIS)
Launch site: PLESETSK MISSILE AND SPACE COMPLEX (PKMTR)

Note: This is SATELLITE DEBRIS
aabbcc
Your satellite tracking list
Your tracking list is empty




NASA's NSSDC Master Catalog

Two Line Element Set (TLE):
1 28992U 88005G   21110.50168601  .00000247  00000-0  18268-3 0  9994
2 28992  82.5392   6.3947 0006616 323.8063 209.6396 13.91734651796326
Source of the keplerian elements: AFSPC